Spokane, WA

3:26 PM PDT on June 22, 2017 (GMT -0700)
Spokane International

Weather History for KGEG - March, 2011

Change the Weather History Date:

Monday, March 14, 2011

  Actual Average Record
Temperature  
Mean Temperature 44 °F 40 °F  
Max Temperature 50 °F 49 °F 68 °F (1992)
Min Temperature 37 °F 31 °F 9 °F (1906)
Degree Days  
Heating Degree Days 21 25  
Month to date heating degree days 393 380  
Since 1 July heating degree days 5271 5209  
Cooling Degree Days 0 0  
Month to date cooling degree days 0 0  
Year to date cooling degree days 0 0  
Moisture  
Dew Point 32 °F    
Average Humidity 68    
Maximum Humidity 86    
Minimum Humidity 50    
Precipitation  
Precipitation T in 0.05 in 0.63 in (1995)
Month to date precipitation 1.50 0.73  
Year to date precipitation 5.07 3.85  
Snow  
Snow 0.00 in 0.10 in 3.80 in (1904)
Month to date snowfall 2.1 1.8  
Since 1 July snowfall 66.7 42.1  
Snow Depth 0.00 in    
Sea Level Pressure  
Sea Level Pressure 30.05 in    
Wind  
Wind Speed 17 mph (SSW)    
Max Wind Speed 36 mph    
Max Gust Speed 45 mph    
Visibility 10 miles    
Events      
T = Trace of Precipitation, MM = Missing Value Source: NWS Daily Summary

Daily Weather History Graph

Daily Weather History Graph

Search for Another Location

Airport or City:

Trip Planner

Search our weather history database for the weather conditions in past years. The results will help you decide how hot, cold, wet, or windy it might be!

Date:

Astronomy

Mar. 14, 2011 Rise Set
Actual Time 7:05 AM PDT 6:53 PM PDT
Civil Twilight 6:34 AM PDT 7:24 PM PDT
Nautical Twilight 5:59 AM PDT 8:00 PM PDT
Astronomical Twilight 5:22 AM PDT 8:37 PM PDT
Moon 12:54 PM PDT (3/14) 3:55 AM PDT (3/14)
Length of Visible Light 12h 49m
Length of Day
11h 48m
Waxing Gibbous, 69% of the Moon is Illuminated
Mar 14
Waxing Gibbous
Mar 19
Full
Mar 26
Last Quarter
Apr 3
New
Apr 11
First Quarter

Hourly Weather History & Observations

Time (PDT) Temp. Windchill Dew Point Humidity Pressure Visibility Wind Dir Wind Speed Gust Speed Precip Events Conditions
12:31 AM 41.0 °F 30.9 °F 37.4 °F 87% 29.86 in 10.0 mi SSW 24.2 mph 36.8 mph N/A   Overcast
12:53 AM 41.0 °F 30.9 °F 37.0 °F 86% 29.88 in 10.0 mi SSW 24.2 mph 32.2 mph N/A   Mostly Cloudy
1:53 AM 39.9 °F 30.5 °F 36.0 °F 86% 29.93 in 10.0 mi SSW 19.6 mph 29.9 mph N/A   Clear
2:53 AM 39.0 °F 28.8 °F 35.1 °F 86% 29.95 in 10.0 mi SSW 21.9 mph 28.8 mph N/A   Partly Cloudy
3:53 AM 37.9 °F 28.5 °F 34.0 °F 86% 29.96 in 10.0 mi SSW 17.3 mph 26.5 mph N/A   Clear
4:53 AM 37.0 °F 27.4 °F 33.1 °F 86% 29.99 in 10.0 mi SSW 17.3 mph 27.6 mph N/A   Partly Cloudy
5:53 AM 37.4 °F 27.5 °F 32.0 °F 81% 29.97 in 10.0 mi South 18.4 mph 25.3 mph N/A   Scattered Clouds
6:53 AM 37.0 °F 27.7 °F 30.9 °F 79% 30.03 in 10.0 mi South 16.1 mph 19.6 mph N/A   Mostly Cloudy
7:53 AM 37.0 °F 27.4 °F 30.0 °F 76% 30.05 in 10.0 mi SSW 17.3 mph - N/A   Mostly Cloudy
8:53 AM 37.9 °F 27.1 °F 30.0 °F 73% 30.06 in 10.0 mi SSW 23.0 mph 31.1 mph N/A   Mostly Cloudy
9:53 AM 43.0 °F 32.9 °F 30.0 °F 60% 30.07 in 10.0 mi SW 27.6 mph 36.8 mph N/A   Mostly Cloudy
10:53 AM 44.1 °F 33.2 °F 30.0 °F 58% 30.07 in 10.0 mi SW 35.7 mph 44.9 mph N/A   Mostly Cloudy
11:53 AM 46.9 °F - 30.9 °F 54% 30.10 in 10.0 mi SW 29.9 mph 38.0 mph N/A   Mostly Cloudy
12:53 PM 46.0 °F 38.3 °F 32.0 °F 58% 30.12 in 10.0 mi SW 20.7 mph 31.1 mph N/A   Mostly Cloudy
1:53 PM 48.0 °F - 32.0 °F 54% 30.12 in 10.0 mi SW 25.3 mph 34.5 mph N/A   Mostly Cloudy
2:53 PM 48.0 °F - 30.9 °F 52% 30.11 in 10.0 mi SW 19.6 mph 26.5 mph N/A   Mostly Cloudy
3:53 PM 48.0 °F - 30.9 °F 52% 30.11 in 10.0 mi SW 19.6 mph - N/A   Overcast
4:53 PM 48.0 °F - 30.9 °F 52% 30.11 in 10.0 mi SW 16.1 mph - 0.00 in   Mostly Cloudy
5:53 PM 46.9 °F - 30.9 °F 54% 30.12 in 10.0 mi SW 15.0 mph 24.2 mph 0.00 in   Mostly Cloudy
6:53 PM 44.1 °F 39.0 °F 30.9 °F 60% 30.12 in 10.0 mi SW 9.2 mph - N/A   Overcast
7:53 PM 42.1 °F 37.1 °F 30.9 °F 65% 30.11 in 10.0 mi SSW 8.1 mph - N/A   Overcast
8:53 PM 42.1 °F 37.7 °F 30.9 °F 65% 30.11 in 10.0 mi South 6.9 mph - N/A   Overcast
9:53 PM 39.9 °F 35.8 °F 30.9 °F 70% 30.11 in 10.0 mi South 5.8 mph - N/A   Mostly Cloudy
10:53 PM 41.0 °F 38.0 °F 30.9 °F 67% 30.08 in 10.0 mi South 4.6 mph - N/A   Overcast
11:53 PM 39.9 °F 35.8 °F 30.9 °F 70% 30.05 in 10.0 mi SE 5.8 mph - N/A   Mostly Cloudy